RYR6FG LIBR-LIMC

Flight info

Callsign RYR6FG
Flight time 1h 29m
Altitude 36000
Route FASAN DCT BAR DCT GENGI DCT GITOD DCT OKBIS DCT VERUN DCT LOMED M730 MIVKI T648 MEBUR
Aircraft B738/M-SDE2E3FGHIRWXY/LB1

Departure

Time 2026-04-16 20:47
Airport Brindisi Airport (LIBR)

Arrival

Time 2026-04-16 22:17
Airport Milan Malpensa International Airport (LIMC)
Time Latitude Longitude Altitude Speed Heading
2026-04-16 20:19 40.65729 17.93974 43 ft 0 kts 322°
2026-04-16 20:20 40.65728 17.93975 43 ft 0 kts 322°
2026-04-16 20:39 40.65727 17.93976 43 ft 2 kts 322°
2026-04-16 20:39 40.65706 17.93997 43 ft 4 kts 322°
2026-04-16 20:40 40.65685 17.94018 43 ft 4 kts 326°
2026-04-16 20:40 40.65661 17.94033 38 ft 4 kts 353°
2026-04-16 20:40 40.65637 17.94028 40 ft 4 kts 34°
2026-04-16 20:40 40.65624 17.94012 40 ft 0 kts 52°
2026-04-16 20:41 40.65638 17.94036 39 ft 4 kts 52°
2026-04-16 20:41 40.65650 17.94057 39 ft 0 kts 52°
2026-04-16 20:44 40.65651 17.94059 39 ft 3 kts 52°
2026-04-16 20:44 40.65697 17.94136 43 ft 14 kts 52°
2026-04-16 20:45 40.65758 17.94240 43 ft 14 kts 52°
2026-04-16 20:45 40.65815 17.94339 42 ft 13 kts 53°
2026-04-16 20:45 40.65869 17.94431 41 ft 8 kts 52°
2026-04-16 20:45 40.65873 17.94437 41 ft 1 kts 51°
2026-04-16 20:46 40.65889 17.94464 41 ft 8 kts 52°
2026-04-16 20:46 40.65932 17.94552 38 ft 9 kts 37°
2026-04-16 20:46 40.65957 17.94543 36 ft 2 kts 319°
2026-04-16 20:46 40.66033 17.94450 39 ft 46 kts 317°
2026-04-16 20:47 40.66469 17.93919 41 ft 122 kts 317°
2026-04-16 20:47 40.67222 17.92991 366 ft 155 kts 315°
2026-04-16 20:47 40.68008 17.92002 1323 ft 160 kts 320°
2026-04-16 20:47 40.68819 17.90970 2228 ft 163 kts 322°
2026-04-16 20:48 40.69650 17.89962 3053 ft 166 kts 323°
2026-04-16 20:48 40.70554 17.88908 3632 ft 186 kts 323°
2026-04-16 20:48 40.71606 17.87670 3888 ft 217 kts 322°
2026-04-16 20:48 40.72788 17.86256 4156 ft 241 kts 320°
2026-04-16 20:49 40.74091 17.84686 4451 ft 265 kts 321°
2026-04-16 20:49 40.75485 17.82990 5124 ft 276 kts 318°
2026-04-16 20:49 40.76564 17.80891 6106 ft 281 kts 292°
2026-04-16 20:49 40.76963 17.78338 6938 ft 288 kts 271°
2026-04-16 20:50 40.76912 17.75688 7838 ft 290 kts 268°
2026-04-16 20:50 40.76826 17.73015 8721 ft 293 kts 267°
2026-04-16 20:50 40.76732 17.70362 9668 ft 293 kts 266°
2026-04-16 20:50 40.76780 17.67642 10366 ft 302 kts 282°
2026-04-16 20:51 40.77521 17.64986 10839 ft 320 kts 296°
2026-04-16 20:51 40.78580 17.62280 11105 ft 342 kts 298°
2026-04-16 20:51 40.79726 17.59496 11786 ft 348 kts 298°
2026-04-16 20:51 40.80887 17.56660 12538 ft 353 kts 298°
2026-04-16 20:52 40.82047 17.53778 13332 ft 357 kts 298°
2026-04-16 20:52 40.83207 17.50852 14084 ft 362 kts 298°
2026-04-16 20:52 40.84375 17.47881 14765 ft 366 kts 298°
2026-04-16 20:52 40.85550 17.44881 15468 ft 370 kts 298°
2026-04-16 20:53 40.86743 17.41844 16155 ft 373 kts 299°
2026-04-16 20:53 40.88009 17.38825 16836 ft 378 kts 301°
2026-04-16 20:53 40.89334 17.35790 17506 ft 382 kts 301°
2026-04-16 20:53 40.90676 17.32748 18287 ft 384 kts 301°
2026-04-16 20:54 40.92028 17.29673 18825 ft 389 kts 301°
2026-04-16 20:54 40.93388 17.26565 19461 ft 391 kts 301°
2026-04-16 20:54 40.94747 17.23438 20071 ft 394 kts 301°
2026-04-16 20:54 40.96117 17.20275 20623 ft 398 kts 301°
2026-04-16 20:55 40.97496 17.17079 21203 ft 401 kts 300°
2026-04-16 20:55 40.98754 17.14161 21750 ft 403 kts 300°
2026-04-16 20:55 41.00146 17.10925 22326 ft 406 kts 300°
2026-04-16 20:55 41.01551 17.07658 22876 ft 409 kts 300°
2026-04-16 20:56 41.02966 17.04362 23423 ft 413 kts 300°
2026-04-16 20:56 41.04390 17.01041 23906 ft 416 kts 300°
2026-04-16 20:56 41.05806 16.97737 24340 ft 419 kts 300°
2026-04-16 20:56 41.07249 16.94367 24789 ft 421 kts 300°
2026-04-16 20:57 41.08701 16.90970 25231 ft 424 kts 300°
2026-04-16 20:57 41.10160 16.87554 25657 ft 426 kts 300°
2026-04-16 20:57 41.11626 16.84119 26092 ft 429 kts 300°
2026-04-16 20:57 41.13098 16.80665 26527 ft 431 kts 300°
2026-04-16 20:58 41.14572 16.77174 26932 ft 433 kts 299°
2026-04-16 20:58 41.15933 16.73646 27338 ft 436 kts 297°
2026-04-16 20:58 41.17266 16.69955 27730 ft 439 kts 296°
2026-04-16 20:58 41.18543 16.66319 28130 ft 441 kts 296°
2026-04-16 20:59 41.19836 16.62614 28517 ft 443 kts 296°
2026-04-16 20:59 41.20715 16.60102 28784 ft 445 kts 296°
2026-04-16 20:59 41.22455 16.55155 29262 ft 448 kts 296°
2026-04-16 20:59 41.23785 16.51394 29619 ft 450 kts 296°
2026-04-16 21:00 41.24688 16.48847 29858 ft 452 kts 296°
2026-04-16 21:00 41.26018 16.45101 30196 ft 454 kts 296°
2026-04-16 21:00 41.27367 16.41304 30523 ft 454 kts 296°
2026-04-16 21:00 41.28713 16.37510 30974 ft 452 kts 296°
2026-04-16 21:01 41.30052 16.33731 31459 ft 449 kts 296°
2026-04-16 21:01 41.31378 16.29982 31893 ft 447 kts 296°
2026-04-16 21:01 41.32701 16.26239 32262 ft 446 kts 296°
2026-04-16 21:01 41.34019 16.22503 32628 ft 446 kts 296°
2026-04-16 21:02 41.35335 16.18769 33029 ft 444 kts 295°
2026-04-16 21:02 41.36639 16.15063 33441 ft 442 kts 295°
2026-04-16 21:02 41.37945 16.11347 33803 ft 441 kts 295°
2026-04-16 21:03 41.40523 16.03998 34420 ft 440 kts 295°
2026-04-16 21:03 41.41834 16.00253 34712 ft 440 kts 295°
2026-04-16 21:03 41.43108 15.96608 34994 ft 439 kts 295°
2026-04-16 21:03 41.44399 15.92913 35284 ft 439 kts 296°
2026-04-16 21:04 41.45682 15.89232 35557 ft 438 kts 296°
2026-04-16 21:04 41.46968 15.85538 35814 ft 438 kts 296°
2026-04-16 21:04 41.48250 15.81852 36069 ft 438 kts 296°
2026-04-16 21:05 41.50830 15.74419 36103 ft 443 kts 296°
2026-04-16 21:05 41.53401 15.66991 36093 ft 438 kts 296°
2026-04-16 21:06 41.55937 15.59645 36105 ft 434 kts 296°
2026-04-16 21:06 41.58460 15.52319 36109 ft 434 kts 296°
2026-04-16 21:07 41.60966 15.45024 36101 ft 434 kts 296°
2026-04-16 21:07 41.63480 15.37684 36104 ft 434 kts 296°
2026-04-16 21:08 41.65990 15.30336 36106 ft 435 kts 296°
2026-04-16 21:08 41.68498 15.22976 36109 ft 435 kts 296°
2026-04-16 21:09 41.70994 15.15630 36110 ft 436 kts 296°
2026-04-16 21:09 41.73502 15.08233 36114 ft 437 kts 296°
2026-04-16 21:10 41.76015 15.00797 36124 ft 438 kts 296°
2026-04-16 21:10 41.78527 14.93347 36116 ft 439 kts 296°
2026-04-16 21:11 41.81039 14.85873 36109 ft 440 kts 296°
2026-04-16 21:11 41.83547 14.78393 36115 ft 440 kts 296°
2026-04-16 21:12 41.86058 14.70883 36131 ft 440 kts 296°
2026-04-16 21:12 41.88547 14.63419 36110 ft 440 kts 296°
2026-04-16 21:13 41.91048 14.55896 36128 ft 440 kts 297°
2026-04-16 21:13 41.93535 14.48399 36127 ft 439 kts 297°
2026-04-16 21:14 41.96014 14.40902 36135 ft 438 kts 297°
2026-04-16 21:14 41.98474 14.33445 36138 ft 438 kts 297°
2026-04-16 21:15 42.00942 14.25941 36137 ft 437 kts 297°
2026-04-16 21:15 42.03398 14.18452 36133 ft 437 kts 297°
2026-04-16 21:16 42.05830 14.11017 36145 ft 436 kts 297°
2026-04-16 21:16 42.08272 14.03531 36135 ft 436 kts 297°
2026-04-16 21:17 42.10705 13.96054 36135 ft 436 kts 297°
2026-04-16 21:17 42.13139 13.88552 36141 ft 436 kts 297°
2026-04-16 21:18 42.15553 13.81092 36147 ft 436 kts 297°
2026-04-16 21:18 42.17977 13.73576 36150 ft 436 kts 297°
2026-04-16 21:19 42.20395 13.66059 36144 ft 436 kts 297°
2026-04-16 21:19 42.22799 13.58567 36155 ft 435 kts 297°
2026-04-16 21:20 42.25205 13.51047 36145 ft 436 kts 297°
2026-04-16 21:20 42.27605 13.43525 36153 ft 436 kts 296°
2026-04-16 21:21 42.29986 13.36040 36142 ft 435 kts 296°
2026-04-16 21:21 42.32370 13.28523 36148 ft 434 kts 296°
2026-04-16 21:22 42.34741 13.21030 36147 ft 432 kts 296°
2026-04-16 21:22 42.37082 13.13609 36143 ft 431 kts 296°
2026-04-16 21:23 42.39474 13.06182 36136 ft 429 kts 300°
2026-04-16 21:23 42.42781 12.99553 36146 ft 423 kts 309°
2026-04-16 21:24 42.46332 12.93207 36136 ft 422 kts 309°
2026-04-16 21:24 42.49854 12.86851 36126 ft 422 kts 309°
2026-04-16 21:25 42.53351 12.80459 36124 ft 421 kts 309°
2026-04-16 21:25 42.56832 12.74059 36115 ft 422 kts 308°
2026-04-16 21:26 42.60301 12.67665 36121 ft 423 kts 308°
2026-04-16 21:26 42.63795 12.61213 36123 ft 424 kts 308°
2026-04-16 21:27 42.67292 12.54742 36117 ft 425 kts 308°
2026-04-16 21:27 42.70767 12.48295 36107 ft 424 kts 308°
2026-04-16 21:28 42.74252 12.41818 36110 ft 423 kts 308°
2026-04-16 21:28 42.77731 12.35339 36124 ft 423 kts 308°
2026-04-16 21:29 42.81241 12.28924 36126 ft 421 kts 310°
2026-04-16 21:29 42.84982 12.22766 36126 ft 421 kts 311°
2026-04-16 21:30 42.88719 12.16675 36117 ft 420 kts 311°
2026-04-16 21:30 42.92446 12.10512 36126 ft 420 kts 310°
2026-04-16 21:31 42.96155 12.04345 36132 ft 420 kts 310°
2026-04-16 21:31 43.00335 11.98852 36140 ft 417 kts 330°
2026-04-16 21:31 43.02953 11.97165 36120 ft 417 kts 342°
2026-04-16 21:32 43.05781 11.96311 36150 ft 416 kts 351°
2026-04-16 21:32 43.11490 11.95302 36143 ft 417 kts 352°
2026-04-16 21:33 43.17251 11.94246 36136 ft 417 kts 352°
2026-04-16 21:33 43.23014 11.93111 36137 ft 418 kts 351°
2026-04-16 21:34 43.28546 11.90748 36151 ft 418 kts 333°
2026-04-16 21:34 43.31040 11.88654 36130 ft 418 kts 322°
2026-04-16 21:34 43.33225 11.86129 36159 ft 418 kts 320°
2026-04-16 21:35 43.37562 11.80778 36145 ft 419 kts 319°
2026-04-16 21:35 43.41904 11.75396 36140 ft 419 kts 319°
2026-04-16 21:36 43.46268 11.70042 36153 ft 420 kts 319°
2026-04-16 21:36 43.50641 11.64698 36150 ft 420 kts 320°
2026-04-16 21:37 43.55009 11.59357 36147 ft 419 kts 320°
2026-04-16 21:37 43.59344 11.54044 36137 ft 419 kts 320°
2026-04-16 21:38 43.63691 11.48706 36132 ft 417 kts 320°
2026-04-16 21:38 43.68031 11.43364 36125 ft 416 kts 320°
2026-04-16 21:39 43.72358 11.38028 36111 ft 416 kts 320°
2026-04-16 21:39 43.76643 11.32733 36096 ft 415 kts 320°
2026-04-16 21:40 43.80940 11.27413 36107 ft 414 kts 320°
2026-04-16 21:40 43.85226 11.22094 36106 ft 413 kts 320°
2026-04-16 21:41 43.89517 11.16760 36095 ft 413 kts 320°
2026-04-16 21:41 43.93069 11.12335 36118 ft 413 kts 320°
2026-04-16 21:42 43.97351 11.06994 36120 ft 413 kts 320°
2026-04-16 21:42 44.01399 11.01310 36165 ft 416 kts 308°
2026-04-16 21:43 44.04117 10.94196 36186 ft 424 kts 291°
2026-04-16 21:43 44.05801 10.86318 36216 ft 425 kts 289°
2026-04-16 21:44 44.07427 10.78427 36245 ft 424 kts 290°
2026-04-16 21:44 44.09090 10.70593 36253 ft 425 kts 290°
2026-04-16 21:45 44.10769 10.62736 36251 ft 421 kts 290°
2026-04-16 21:45 44.12416 10.54989 36244 ft 415 kts 290°
2026-04-16 21:46 44.14051 10.47280 36081 ft 416 kts 290°
2026-04-16 21:46 44.14867 10.43424 35775 ft 411 kts 290°
2026-04-16 21:46 44.15668 10.39625 35377 ft 406 kts 291°
2026-04-16 21:46 44.16460 10.35860 34992 ft 403 kts 291°
2026-04-16 21:47 44.17232 10.32171 34602 ft 400 kts 291°
2026-04-16 21:47 44.18003 10.28449 34214 ft 398 kts 291°
2026-04-16 21:47 44.18767 10.24750 33782 ft 396 kts 291°
2026-04-16 21:47 44.19525 10.21077 33352 ft 393 kts 291°
2026-04-16 21:48 44.20279 10.17421 32961 ft 389 kts 290°
2026-04-16 21:48 44.21023 10.13806 32595 ft 386 kts 290°
2026-04-16 21:48 44.21760 10.10226 32221 ft 383 kts 291°
2026-04-16 21:48 44.22701 10.06838 31856 ft 375 kts 300°
2026-04-16 21:49 44.24023 10.03752 31494 ft 368 kts 309°
2026-04-16 21:49 44.25526 10.00825 31142 ft 365 kts 309°
2026-04-16 21:49 44.27001 9.98003 30796 ft 363 kts 309°
2026-04-16 21:49 44.28484 9.95162 30455 ft 360 kts 309°
2026-04-16 21:50 44.29954 9.92327 30102 ft 358 kts 308°
2026-04-16 21:50 44.31409 9.89501 29701 ft 356 kts 308°
2026-04-16 21:50 44.32848 9.86693 29339 ft 353 kts 308°
2026-04-16 21:50 44.34268 9.83913 28967 ft 350 kts 308°
2026-04-16 21:51 44.35661 9.81181 28636 ft 346 kts 308°
2026-04-16 21:51 44.37048 9.78457 28296 ft 342 kts 308°
2026-04-16 21:51 44.38421 9.75757 27925 ft 339 kts 308°
2026-04-16 21:51 44.39786 9.73072 27599 ft 337 kts 308°
2026-04-16 21:52 44.41137 9.70413 27236 ft 335 kts 308°
2026-04-16 21:52 44.42485 9.67757 26892 ft 333 kts 308°
2026-04-16 21:52 44.43825 9.65113 26551 ft 331 kts 308°
2026-04-16 21:52 44.45157 9.62488 26210 ft 329 kts 309°
2026-04-16 21:53 44.46610 9.60072 25799 ft 329 kts 315°
2026-04-16 21:53 44.48192 9.57758 25426 ft 328 kts 316°
2026-04-16 21:53 44.49784 9.55478 25078 ft 327 kts 316°
2026-04-16 21:53 44.51373 9.53205 24746 ft 326 kts 316°
2026-04-16 21:54 44.52951 9.50936 24458 ft 323 kts 316°
2026-04-16 21:54 44.54513 9.48679 24136 ft 322 kts 315°
2026-04-16 21:54 44.56068 9.46421 23813 ft 321 kts 315°
2026-04-16 21:54 44.57619 9.44165 23444 ft 320 kts 315°
2026-04-16 21:55 44.59159 9.41918 23073 ft 318 kts 315°
2026-04-16 21:55 44.60672 9.39709 22734 ft 316 kts 315°
2026-04-16 21:55 44.62197 9.37479 22395 ft 315 kts 315°
2026-04-16 21:55 44.63710 9.35263 22069 ft 312 kts 315°
2026-04-16 21:56 44.65209 9.33067 21746 ft 311 kts 315°
2026-04-16 21:56 44.66701 9.30878 21422 ft 309 kts 315°
2026-04-16 21:56 44.68188 9.28697 21099 ft 307 kts 314°
2026-04-16 21:56 44.69662 9.26531 20782 ft 306 kts 314°
2026-04-16 21:57 44.71131 9.24372 20471 ft 305 kts 314°
2026-04-16 21:57 44.72593 9.22223 20145 ft 304 kts 314°
2026-04-16 21:57 44.74031 9.20106 19841 ft 302 kts 314°
2026-04-16 21:57 44.75484 9.17965 19524 ft 302 kts 314°
2026-04-16 21:58 44.76793 9.15657 19168 ft 303 kts 304°
2026-04-16 21:58 44.77896 9.13112 18835 ft 303 kts 301°
2026-04-16 21:58 44.78940 9.10509 18453 ft 305 kts 300°
2026-04-16 21:58 44.79978 9.07902 18101 ft 304 kts 300°
2026-04-16 21:59 44.81004 9.05347 17769 ft 303 kts 301°
2026-04-16 21:59 44.82050 9.02769 17432 ft 302 kts 301°
2026-04-16 21:59 44.83097 9.00207 17118 ft 300 kts 301°
2026-04-16 21:59 44.84144 8.97659 16791 ft 299 kts 301°
2026-04-16 22:00 44.85184 8.95136 16481 ft 297 kts 301°
2026-04-16 22:00 44.86222 8.92622 16172 ft 295 kts 301°
2026-04-16 22:00 44.87242 8.90152 15862 ft 294 kts 301°
2026-04-16 22:00 44.88269 8.87662 15570 ft 293 kts 301°
2026-04-16 22:01 44.89294 8.85180 15259 ft 292 kts 301°
2026-04-16 22:01 44.90311 8.82714 14952 ft 291 kts 301°
2026-04-16 22:01 44.91328 8.80245 14647 ft 290 kts 301°
2026-04-16 22:01 44.92340 8.77788 14339 ft 289 kts 301°
2026-04-16 22:02 44.93350 8.75333 14043 ft 289 kts 301°
2026-04-16 22:02 44.94359 8.72877 13696 ft 288 kts 301°
2026-04-16 22:02 44.95369 8.70419 13361 ft 288 kts 301°
2026-04-16 22:02 44.96370 8.67981 13042 ft 286 kts 301°
2026-04-16 22:03 44.97355 8.65578 12729 ft 285 kts 301°
2026-04-16 22:03 44.98347 8.63157 12443 ft 284 kts 301°
2026-04-16 22:03 44.99358 8.60764 12130 ft 282 kts 307°
2026-04-16 22:03 45.00815 8.58960 11824 ft 279 kts 333°
2026-04-16 22:04 45.02644 8.58098 11535 ft 276 kts 349°
2026-04-16 22:04 45.04529 8.57601 11237 ft 275 kts 350°
2026-04-16 22:04 45.06414 8.57112 10935 ft 275 kts 350°
2026-04-16 22:04 45.08291 8.56613 10638 ft 274 kts 350°
2026-04-16 22:05 45.10170 8.56105 10348 ft 274 kts 349°
2026-04-16 22:05 45.12018 8.55596 10212 ft 266 kts 349°
2026-04-16 22:05 45.13828 8.55095 9943 ft 265 kts 349°
2026-04-16 22:05 45.15640 8.54592 9599 ft 266 kts 349°
2026-04-16 22:06 45.17447 8.54090 9247 ft 267 kts 349°
2026-04-16 22:06 45.21024 8.53095 8946 ft 255 kts 349°
2026-04-16 22:06 45.22758 8.52613 8669 ft 254 kts 349°
2026-04-16 22:07 45.24486 8.52134 8418 ft 252 kts 349°
2026-04-16 22:07 45.26202 8.51658 8162 ft 250 kts 349°
2026-04-16 22:07 45.27915 8.51182 7918 ft 249 kts 349°
2026-04-16 22:07 45.28477 8.51026 7832 ft 249 kts 349°
2026-04-16 22:08 45.30201 8.50616 7568 ft 247 kts 360°
2026-04-16 22:08 45.31811 8.51165 7319 ft 244 kts 31°
2026-04-16 22:08 45.33009 8.52819 7082 ft 241 kts 60°
2026-04-16 22:08 45.33590 8.55016 6861 ft 238 kts 77°
2026-04-16 22:09 45.33912 8.57330 6603 ft 238 kts 79°
2026-04-16 22:09 45.34205 8.59647 6339 ft 237 kts 79°
2026-04-16 22:09 45.34504 8.61932 6188 ft 232 kts 79°
2026-04-16 22:09 45.34801 8.64155 6070 ft 227 kts 79°
2026-04-16 22:10 45.35096 8.66343 5937 ft 231 kts 79°
2026-04-16 22:10 45.35404 8.68622 5725 ft 238 kts 79°
2026-04-16 22:10 45.35719 8.70948 5514 ft 240 kts 79°
2026-04-16 22:10 45.36034 8.73270 5273 ft 236 kts 79°
2026-04-16 22:11 45.36341 8.75534 5035 ft 230 kts 79°
2026-04-16 22:11 45.36852 8.77636 4833 ft 224 kts 52°
2026-04-16 22:11 45.38100 8.78805 4627 ft 215 kts 12°
2026-04-16 22:11 45.39567 8.78957 4443 ft 207 kts
2026-04-16 22:12 45.40994 8.78955 4223 ft 202 kts 358°
2026-04-16 22:12 45.42374 8.78844 4029 ft 199 kts 357°
2026-04-16 22:12 45.43743 8.78634 3845 ft 197 kts 352°
2026-04-16 22:12 45.45095 8.78311 3677 ft 194 kts 350°
2026-04-16 22:13 45.46413 8.77955 3504 ft 192 kts 350°
2026-04-16 22:13 45.47713 8.77595 3305 ft 188 kts 349°
2026-04-16 22:13 45.48989 8.77240 3220 ft 188 kts 349°
2026-04-16 22:13 45.50287 8.76880 2955 ft 187 kts 349°
2026-04-16 22:14 45.51529 8.76536 2730 ft 176 kts 349°
2026-04-16 22:14 45.52680 8.76216 2495 ft 166 kts 349°
2026-04-16 22:14 45.53767 8.75915 2303 ft 156 kts 349°
2026-04-16 22:14 45.54822 8.75622 2088 ft 153 kts 349°
2026-04-16 22:15 45.55872 8.75331 1887 ft 155 kts 349°
2026-04-16 22:15 45.56931 8.75038 1691 ft 153 kts 349°
2026-04-16 22:15 45.57910 8.74768 1507 ft 152 kts 349°
2026-04-16 22:15 45.58936 8.74467 1273 ft 149 kts 348°
2026-04-16 22:16 45.59935 8.74196 1047 ft 144 kts 350°
2026-04-16 22:16 45.60919 8.73930 896 ft 144 kts 349°
2026-04-16 22:16 45.61912 8.73655 727 ft 142 kts 349°
2026-04-16 22:16 45.62775 8.73421 717 ft 105 kts 351°
2026-04-16 22:17 45.63292 8.73276 715 ft 60 kts 349°
2026-04-16 22:17 45.63574 8.73185 717 ft 30 kts 341°
2026-04-16 22:17 45.63721 8.73069 716 ft 19 kts 321°
2026-04-16 22:17 45.63792 8.72961 716 ft 14 kts 309°
2026-04-16 22:18 45.63848 8.72849 716 ft 13 kts 303°
2026-04-16 22:18 45.63899 8.72739 719 ft 13 kts 304°
2026-04-16 22:18 45.63922 8.72624 715 ft 12 kts 243°
2026-04-16 22:18 45.63847 8.72590 717 ft 12 kts 174°
2026-04-16 22:19 45.63752 8.72614 715 ft 15 kts 169°
2026-04-16 22:19 45.63648 8.72643 717 ft 15 kts 169°
2026-04-16 22:19 45.63548 8.72671 718 ft 14 kts 169°
2026-04-16 22:19 45.63452 8.72695 717 ft 14 kts 176°
2026-04-16 22:20 45.63368 8.72648 718 ft 13 kts 214°
2026-04-16 22:20 45.63294 8.72576 716 ft 13 kts 214°
2026-04-16 22:20 45.63221 8.72507 715 ft 12 kts 213°
2026-04-16 22:20 45.63150 8.72441 718 ft 12 kts 214°
2026-04-16 22:21 45.63070 8.72351 718 ft 17 kts 229°
2026-04-16 22:21 45.63027 8.72200 717 ft 16 kts 261°
2026-04-16 22:21 45.63009 8.72042 718 ft 16 kts 259°
2026-04-16 22:21 45.62990 8.71966 716 ft 11 kts 230°
2026-04-16 22:22 45.62916 8.71959 716 ft 11 kts 169°
2026-04-16 22:22 45.62805 8.71991 715 ft 13 kts 168°
2026-04-16 22:22 45.62715 8.72014 716 ft 13 kts 178°
2026-04-16 22:22 45.62666 8.71927 718 ft 12 kts 259°
2026-04-16 22:23 45.62647 8.71856 716 ft 11 kts 225°
2026-04-16 22:23 45.62573 8.71854 715 ft 11 kts 169°
2026-04-16 22:23 45.62527 8.71853 716 ft 4 kts 235°
2026-04-16 22:23 45.62517 8.71816 715 ft 4 kts 252°
2026-04-16 22:24 45.62509 8.71778 719 ft 4 kts 257°
2026-04-16 22:24 45.62507 8.71760 718 ft 0 kts 258°
2026-04-16 22:24 45.62507 8.71759 718 ft 0 kts 258°